TimeCST,TemperatureF,Dew PointF,Humidity,Sea Level PressureIn,VisibilityMPH,Wind Direction,Wind SpeedMPH,Gust SpeedMPH,PrecipitationIn,Events,Conditions,WindDirDegrees,DateUTC
12:53 AM,37.9,26.1,62,30.09,10.0,ENE,11.5,-,0.00,,Overcast,70,2013-02-21 06:53:00
1:53 AM,39.0,26.1,60,30.06,10.0,ENE,9.2,-,0.00,Rain,Light Rain,70,2013-02-21 07:53:00
2:53 AM,39.0,26.1,60,30.05,10.0,ENE,10.4,-,0.00,,Overcast,60,2013-02-21 08:53:00
3:53 AM,39.0,26.1,60,30.02,10.0,ENE,12.7,-,N/A,,Overcast,60,2013-02-21 09:53:00
4:53 AM,39.0,27.0,62,30.01,10.0,ENE,12.7,-,N/A,,Overcast,60,2013-02-21 10:53:00
5:23 AM,39.2,26.6,61,30.02,10.0,ENE,9.2,-,N/A,,Overcast,70,2013-02-21 11:23:00
5:53 AM,39.0,27.0,62,30.02,10.0,East,10.4,-,N/A,,Overcast,80,2013-02-21 11:53:00
6:53 AM,39.9,27.0,60,29.98,10.0,East,11.5,-,N/A,,Overcast,80,2013-02-21 12:53:00
7:53 AM,39.9,27.0,60,29.93,10.0,East,16.1,23.0,0.00,Rain,Light Rain,100,2013-02-21 13:53:00
8:53 AM,42.1,28.0,58,29.88,10.0,East,13.8,-,0.00,Rain,Light Rain,100,2013-02-21 14:53:00
9:53 AM,45.0,28.0,52,29.83,10.0,SE,18.4,26.5,0.00,,Overcast,130,2013-02-21 15:53:00
10:44 AM,44.6,30.2,57,29.83,10.0,ESE,9.2,19.6,0.00,Thunderstorm,Thunderstorm,120,2013-02-21 16:44:00
10:53 AM,44.1,30.0,58,29.82,10.0,SE,11.5,18.4,0.00,Rain,Light Rain,130,2013-02-21 16:53:00
11:00 AM,44.6,30.2,57,29.83,4.0,SE,8.1,17.3,0.06,Rain-Thunderstorm,Rain,140,2013-02-21 17:00:00
11:53 AM,42.1,37.0,82,29.79,10.0,ESE,6.9,-,0.13,Rain-Thunderstorm,Light Rain,120,2013-02-21 17:53:00
12:26 PM,44.6,39.2,81,29.77,10.0,SE,9.2,-,0.04,Rain,Light Rain,130,2013-02-21 18:26:00
12:53 PM,46.0,41.0,83,29.75,10.0,SE,8.1,-,0.04,,Overcast,140,2013-02-21 18:53:00
1:31 PM,48.2,42.8,82,29.74,10.0,ESE,5.8,-,N/A,,Overcast,120,2013-02-21 19:31:00
1:53 PM,48.0,44.1,86,29.73,10.0,ESE,4.6,-,N/A,,Overcast,110,2013-02-21 19:53:00
2:53 PM,48.9,45.0,86,29.70,10.0,East,6.9,-,0.00,Rain,Light Rain,90,2013-02-21 20:53:00
3:53 PM,50.0,46.9,89,29.68,10.0,ENE,5.8,-,0.00,,Overcast,60,2013-02-21 21:53:00
4:53 PM,51.1,48.0,89,29.69,10.0,ENE,5.8,-,N/A,,Overcast,70,2013-02-21 22:53:00
5:39 PM,50.0,48.2,94,29.72,10.0,NW,5.8,-,0.00,,Overcast,310,2013-02-21 23:39:00
5:53 PM,48.9,46.9,93,29.73,7.0,NW,13.8,21.9,0.00,Rain,Light Rain,310,2013-02-21 23:53:00
6:02 PM,46.4,44.6,93,29.75,8.0,WNW,12.7,-,0.01,Rain,Light Rain,300,2013-02-22 00:02:00
6:53 PM,44.1,42.1,93,29.78,8.0,NE,4.6,-,0.01,,Overcast,50,2013-02-22 00:53:00
7:08 PM,44.6,42.8,93,29.80,10.0,NW,4.6,-,N/A,,Overcast,320,2013-02-22 01:08:00
7:24 PM,44.6,42.8,93,29.82,7.0,WNW,5.8,-,0.00,Rain,Light Rain,300,2013-02-22 01:24:00
7:40 PM,44.6,42.8,93,29.82,10.0,NW,4.6,-,0.00,,Overcast,320,2013-02-22 01:40:00
7:51 PM,44.6,42.8,93,29.84,10.0,WNW,5.8,-,0.00,,Overcast,290,2013-02-22 01:51:00
7:53 PM,43.0,42.1,97,29.84,10.0,WNW,4.6,-,0.00,,Overcast,300,2013-02-22 01:53:00
8:53 PM,42.1,39.9,92,29.89,8.0,NW,6.9,-,N/A,,Overcast,320,2013-02-22 02:53:00
9:53 PM,41.0,39.0,93,29.89,9.0,Variable,4.6,-,N/A,,Mostly Cloudy,0,2013-02-22 03:53:00
10:53 PM,39.9,39.0,97,29.90,8.0,Calm,Calm,-,N/A,,Overcast,0,2013-02-22 04:53:00
11:53 PM,39.9,37.9,93,29.90,4.0,Calm,Calm,-,N/A,,Overcast,0,2013-02-22 05:53:00